PEGASUS DEB, 24227

Orbit data source: Space-Track

PEGASUS DEB, 24227 is space debris in LEO originally from a launch on Thu, 19 May 1994 UTC launched from the Air Force Western Test Range (AFWTR). Debris objects in space refer to the collection of defunct objects orbiting the Earth. Examples of debris include non-operational satellites, rocket bodies, and fragments generated from explosions, collisions, or faulty payload assembly.

Loading next visibility...
Identifier
24227, 1994-029LA
Orbit
LEO
Country
Flag of USUS
Related business
Manufacturer
Unknown
Mission
Spacecraft
Bus & Motor
Unknown
Mass
Unknown
Launch date (UTC)
1994-05-19 (32 years ago)
Launch vehicle
Unknown
Launch site
Air Force Western Test Range (AFWTR)
Object type
Payload
Rocket body
Debris
Shape & HBR
Unknown shape, 0.1 m
Radar Cross Section
Medium (>0.1 m² and <1 m²)

Expand to show TLE details & history
Last TLE update: 18 hours ago

TLE from 18 hours ago
0 PEGASUS DEB
1 24227U 94029LA  26235.36688590  .00001442  00000-0  17197-3 0  9993
2 24227  82.0404  14.6983 0136508  59.2209 331.6274 14.77054320611678
Epoch: 2026-08-23T08:48Z
TLE epoch observation values (Epoch: 2026-08-23T08:48:18.941Z)
Latitude
29.82759°
Longitude
-84.47176°
Altitude
558.445 km
Speed
7.63 km/s
True Right ascension
01h 17m 05s
True Declination
29° 40' 31"
Sunlit
Object was in full shadow at epoch
Visualization orbit readout
Latitude
Unknown
Longitude
Unknown
Altitude
Unknown
Speed
Unknown
Apparent Right ascension
Unknown
Apparent Declination
Unknown
Sunlit
N/A
Visualization observer readout
Local Sidereal Time
17:51:29
Azimuth
Unknown
Elevation
Unknown
Doppler factor
Unknown
Orbital elements
Apogee altitude
731.429 km
Perigee altitude
539.94 km
Semi-major axis
7,013.821 km
Eccentricity
0.01365
Inclination
82.0404°
RAAN
14.6983°
Arg. of periapsis
59.2209°
True anomaly
330.87275°
Mean anomaly
331.6274°
Eccentric anomaly
331.25122°
Mean motion
3.69497 °/min
Orbital period
97.43 mins
BSTAR
0.00017197
Loading maneuver chart data...
Computing Atmospheric mass density...

Documentation

Showing up to 5 results
|